Regional Weather Roundup
Issued by NWS

Home | Current Version | Previous Version | Text Only | Print | Product List | Glossary On
Versions: 1 2 3 4 5 6 7 8 9 10 11 12 13 14 15 16 17 18 19 20 21 22 23 24 25 26 27 28 29 30 31 32 33 34 35 36 37 38 39 40 41 42 43 44 45 46 47 48 49 50
000
ASUS43 KTOP 152259
RWRKS

WEATHER ROUNDUP FOR KANSAS
NATIONAL WEATHER SERVICE GOODLAND KS
600 PM CDT MON SEP 15 2014

NOTE:  "FAIR" INDICATES FEW OR NO CLOUDS BELOW 12,000 FEET WITH NO
SIGNIFICANT WEATHER AND/OR OBSTRUCTIONS TO VISIBILITY.

KSZ001>006-013>018-027>032-041>047-160000-
NORTHWEST KANSAS

CITY           SKY/WX    TMP DP  RH WIND       PRES   REMARKS
GOODLAND       SUNNY     67  49  52 E6        30.27F
HAYS           SUNNY     70  52  52 NE10      30.23R
HILL CITY      SUNNY     72  43  35 NE12G18   30.24S
RUSSELL        SUNNY     71  52  50 NE13      30.20R
$$

KSZ061>065-074>080-084>089-160000-
SOUTHWEST KANSAS

CITY           SKY/WX    TMP DP  RH WIND       PRES   REMARKS
DODGE CITY     CLOUDY    65  54  67 NE15      30.22S
ELKHART          N/A     58  55  90 N10         N/A
GARDEN CITY    CLOUDY    64  54  69 NE17      30.23F
GREAT BEND     CLOUDY    68  55  64 NE10      30.21S
LIBERAL        CLOUDY    64  55  72 NE14      30.24R
$$

KSZ066>073-081>083-090>101-160000-
SOUTHEAST KANSAS

CITY           SKY/WX    TMP DP  RH WIND       PRES   REMARKS
CHANUTE        MOSUNNY   74  63  68 NE15G21   30.11S
COFFEYVILLE    TSTM      73  72  96 N17       30.08R VSB 1
HUTCHINSON     CLOUDY    69  57  65 N12       30.17S
NEWTON         MOSUNNY   66  55  68 NE14G21   30.18S
PARSONS        PTSUNNY   77  66  68 N13G21    30.11R
WICHITA INTL   MOSUNNY   74  61  63 N17       30.14R
WICHITA JABRA  MOSUNNY   71  61  70 NE14      30.14S
WINFIELD       MOSUNNY   79  66  64 N17       30.10R
$$

KSZ007>012-019>026-033>040-048>060-102>105-160000-
NORTHEAST KANSAS

CITY           SKY/WX    TMP DP  RH WIND       PRES   REMARKS
EMPORIA        CLOUDY    68  59  73 NE8       30.15S
LAWRENCE       CLOUDY    69  56  62 N14G20    30.16R
MANHATTAN      SUNNY     71  53  52 NE14      30.18R
OLATHE IND     CLOUDY    67  60  78 N10       30.16R
OLATHE EXE     CLOUDY    67  60  78 N12       30.15R
SALINA         CLOUDY    72  53  51 NE13      30.18S
TOPEKA BILLARD MOSUNNY   70  56  61 N10       30.17R
TOPEKA FORBES  CLOUDY    69  57  65 N10       30.17R
$$



USA.gov is the U.S. government's official web portal to all federal, state and local government web resources and services.